Time,TemperatureF,DewpointF,PressureIn,WindDirection,WindDirectionDegrees,WindSpeedMPH,WindSpeedGustMPH,Humidity,HourlyPrecipIn,Conditions,Clouds,dailyrainin,SoftwareType,DateUTC
2013-03-15 00:00:00,44.8,36.0,30.08,NW,304,0.0,0.0,71,0.00,CLR,,0.00,WeatherDisplay:10.37,2013-03-15 05:00:00,
2013-03-15 00:10:00,44.2,35.7,30.07,NW,304,0.0,0.0,72,0.00,CLR,,0.00,WeatherDisplay:10.37,2013-03-15 05:10:00,
2013-03-15 00:15:00,43.7,35.6,30.07,NW,304,0.0,0.0,73,0.00,CLR,,0.00,WeatherDisplay:10.37,2013-03-15 05:15:00,
2013-03-15 00:20:00,43.3,35.2,30.08,NW,304,0.0,0.0,73,0.00,CLR,,0.00,WeatherDisplay:10.37,2013-03-15 05:20:00,
2013-03-15 00:30:00,42.7,35.3,30.07,NW,304,0.0,0.0,75,0.00,CLR,,0.00,WeatherDisplay:10.37,2013-03-15 05:30:00,
2013-03-15 00:35:00,42.5,35.2,30.07,NW,304,0.0,0.0,75,0.00,CLR,,0.00,WeatherDisplay:10.37,2013-03-15 05:35:00,
2013-03-15 00:40:00,42.5,35.5,30.07,NW,304,0.0,0.0,76,0.00,CLR,,0.00,WeatherDisplay:10.37,2013-03-15 05:40:00,
2013-03-15 00:45:00,42.4,35.7,30.07,NW,304,0.0,0.0,77,0.00,CLR,,0.00,WeatherDisplay:10.37,2013-03-15 05:45:00,
2013-03-15 00:55:00,42.3,35.6,30.06,NW,304,0.0,0.0,77,0.00,CLR,,0.00,WeatherDisplay:10.37,2013-03-15 05:55:00,
2013-03-15 01:00:00,42.1,35.4,30.05,NW,304,0.0,0.0,77,0.00,CLR,,0.00,WeatherDisplay:10.37,2013-03-15 06:00:00,
2013-03-15 01:10:00,41.7,35.0,30.05,NW,304,0.0,0.0,77,0.00,CLR,,0.00,WeatherDisplay:10.37,2013-03-15 06:10:00,
2013-03-15 01:20:00,41.4,35.1,30.04,NW,304,0.0,0.0,78,0.00,CLR,,0.00,WeatherDisplay:10.37,2013-03-15 06:20:00,
2013-03-15 01:30:00,40.8,34.5,30.05,NW,304,0.0,0.0,78,0.00,CLR,,0.00,WeatherDisplay:10.37,2013-03-15 06:30:00,
2013-03-15 01:40:00,40.4,34.4,30.05,NW,304,0.0,0.0,79,0.00,CLR,,0.00,WeatherDisplay:10.37,2013-03-15 06:40:00,
2013-03-15 01:50:00,40.2,34.6,30.04,NW,304,0.0,0.0,80,0.00,CLR,,0.00,WeatherDisplay:10.37,2013-03-15 06:50:00,
2013-03-15 02:00:00,40.0,34.3,30.04,NW,304,0.0,0.0,80,0.00,CLR,,0.00,WeatherDisplay:10.37,2013-03-15 07:00:00,
2013-03-15 02:10:00,40.0,34.6,30.04,NW,304,0.0,0.0,81,0.00,CLR,,0.00,WeatherDisplay:10.37,2013-03-15 07:10:00,
2013-03-15 02:20:00,39.9,34.6,30.03,NW,304,0.0,0.0,81,0.00,CLR,,0.00,WeatherDisplay:10.37,2013-03-15 07:20:00,
2013-03-15 02:30:00,39.7,34.7,30.03,NW,304,0.0,0.0,82,0.00,CLR,,0.00,WeatherDisplay:10.37,2013-03-15 07:30:00,
2013-03-15 02:40:00,39.4,34.4,30.03,NW,304,0.0,0.0,82,0.00,CLR,,0.00,WeatherDisplay:10.37,2013-03-15 07:40:00,
2013-03-15 02:50:00,39.3,34.6,30.02,NW,304,0.0,0.0,83,0.00,CLR,,0.00,WeatherDisplay:10.37,2013-03-15 07:50:00,
2013-03-15 03:00:00,39.0,34.3,30.01,NW,304,0.0,0.0,83,0.00,CLR,,0.00,WeatherDisplay:10.37,2013-03-15 08:00:00,
2013-03-15 03:10:00,39.0,34.6,30.00,NW,304,0.0,0.0,84,0.00,CLR,,0.00,WeatherDisplay:10.37,2013-03-15 08:10:00,
2013-03-15 03:20:00,38.9,34.8,30.00,NW,304,0.0,0.0,85,0.00,CLR,,0.00,WeatherDisplay:10.37,2013-03-15 08:20:00,
2013-03-15 03:30:00,38.6,34.5,29.99,NW,304,0.0,0.0,85,0.00,CLR,,0.00,WeatherDisplay:10.37,2013-03-15 08:30:00,
2013-03-15 03:35:00,38.6,34.5,29.99,NW,304,0.0,0.0,85,0.00,CLR,,0.00,WeatherDisplay:10.37,2013-03-15 08:35:00,
2013-03-15 03:40:00,38.4,34.3,29.99,NW,304,0.0,0.0,85,0.00,CLR,,0.00,WeatherDisplay:10.37,2013-03-15 08:40:00,
2013-03-15 03:50:00,38.6,34.8,29.99,NW,304,0.0,1.0,86,0.00,CLR,,0.00,WeatherDisplay:10.37,2013-03-15 08:50:00,
2013-03-15 04:00:00,38.7,35.2,29.98,NW,305,0.0,0.0,87,0.00,CLR,,0.00,WeatherDisplay:10.37,2013-03-15 09:00:00,
2013-03-15 04:10:00,38.7,35.2,29.98,NW,305,0.0,0.0,87,0.00,CLR,,0.00,WeatherDisplay:10.37,2013-03-15 09:10:00,
2013-03-15 04:20:00,38.9,35.4,29.97,NW,305,0.0,0.0,87,0.00,CLR,,0.00,WeatherDisplay:10.37,2013-03-15 09:20:00,
2013-03-15 04:30:00,38.7,35.2,29.97,NW,305,0.0,0.0,87,0.00,CLR,,0.00,WeatherDisplay:10.37,2013-03-15 09:30:00,
2013-03-15 04:35:00,38.7,35.2,29.96,NW,305,0.0,1.0,87,0.00,CLR,,0.00,WeatherDisplay:10.37,2013-03-15 09:35:00,
2013-03-15 04:40:00,38.7,35.2,29.97,NW,305,0.0,1.0,87,0.00,CLR,,0.00,WeatherDisplay:10.37,2013-03-15 09:40:00,
2013-03-15 04:50:00,38.7,35.5,29.96,West,267,0.0,2.0,88,0.00,CLR,,0.00,WeatherDisplay:10.37,2013-03-15 09:50:00,
2013-03-15 05:00:00,38.9,35.6,29.96,WSW,237,0.0,2.0,88,0.00,CLR,,0.00,WeatherDisplay:10.37,2013-03-15 10:00:00,
2013-03-15 05:10:00,39.1,35.8,29.96,SW,235,0.0,0.0,88,0.00,CLR,,0.00,WeatherDisplay:10.37,2013-03-15 10:10:00,
2013-03-15 05:20:00,39.3,36.0,29.96,SW,235,0.0,0.0,88,0.00,CLR,,0.00,WeatherDisplay:10.37,2013-03-15 10:20:00,
2013-03-15 05:30:00,39.3,36.0,29.95,SW,235,0.0,0.0,88,0.00,CLR,,0.00,WeatherDisplay:10.37,2013-03-15 10:30:00,
2013-03-15 05:35:00,39.4,36.1,29.95,SW,235,0.0,0.0,88,0.00,CLR,,0.00,WeatherDisplay:10.37,2013-03-15 10:35:00,
2013-03-15 05:40:00,39.5,36.2,29.95,SW,235,0.0,0.0,88,0.00,CLR,,0.00,WeatherDisplay:10.37,2013-03-15 10:40:00,
2013-03-15 05:50:00,39.4,36.1,29.95,SW,235,0.0,1.0,88,0.00,CLR,,0.00,WeatherDisplay:10.37,2013-03-15 10:50:00,
2013-03-15 05:55:00,39.4,36.1,29.95,SW,233,0.0,1.0,88,0.00,CLR,,0.00,WeatherDisplay:10.37,2013-03-15 10:55:00,
2013-03-15 06:00:00,39.6,36.3,29.95,SW,231,0.0,1.0,88,0.00,CLR,,0.00,WeatherDisplay:10.37,2013-03-15 11:00:00,
2013-03-15 06:10:00,39.7,36.4,29.95,SW,230,0.0,0.0,88,0.00,CLR,,0.00,WeatherDisplay:10.37,2013-03-15 11:10:00,
2013-03-15 06:20:00,39.8,36.5,29.95,SW,230,0.0,1.0,88,0.00,CLR,,0.00,WeatherDisplay:10.37,2013-03-15 11:20:00,
2013-03-15 06:30:00,39.9,36.6,29.95,SSW,209,0.0,4.0,88,0.00,CLR,,0.00,WeatherDisplay:10.37,2013-03-15 11:30:00,
2013-03-15 06:40:00,39.7,36.4,29.95,South,175,0.0,2.0,88,0.00,CLR,,0.00,WeatherDisplay:10.37,2013-03-15 11:40:00,
2013-03-15 06:50:00,39.6,36.3,29.94,SSW,193,0.0,0.0,88,0.00,CLR,,0.00,WeatherDisplay:10.37,2013-03-15 11:50:00,
2013-03-15 07:00:00,39.4,36.1,29.94,SSW,193,0.0,2.0,88,0.00,CLR,,0.00,WeatherDisplay:10.37,2013-03-15 12:00:00,
2013-03-15 07:10:00,39.7,36.4,29.93,South,191,0.0,0.0,88,0.00,CLR,,0.00,WeatherDisplay:10.37,2013-03-15 12:10:00,
2013-03-15 07:20:00,40.0,36.7,29.93,South,191,0.0,0.0,88,0.00,CLR,,0.00,WeatherDisplay:10.37,2013-03-15 12:20:00,
2013-03-15 07:30:00,40.0,36.7,29.92,South,180,0.0,2.0,88,0.00,CLR,,0.00,WeatherDisplay:10.37,2013-03-15 12:30:00,
2013-03-15 07:35:00,40.0,36.4,29.91,SSE,147,0.0,4.0,87,0.00,CLR,,0.00,WeatherDisplay:10.37,2013-03-15 12:35:00,
2013-03-15 07:40:00,39.8,36.3,29.91,SSE,149,0.0,0.0,87,0.00,CLR,,0.00,WeatherDisplay:10.37,2013-03-15 12:40:00,
2013-03-15 07:50:00,39.7,36.4,29.91,SSE,150,0.0,0.0,88,0.00,CLR,,0.00,WeatherDisplay:10.37,2013-03-15 12:50:00,
2013-03-15 07:55:00,39.8,36.6,29.91,SSE,150,0.0,0.0,88,0.00,CLR,,0.00,WeatherDisplay:10.37,2013-03-15 12:55:00,
2013-03-15 08:00:00,39.8,36.3,29.91,SSE,150,0.0,0.0,87,0.00,CLR,,0.00,WeatherDisplay:10.37,2013-03-15 13:00:00,
2013-03-15 08:10:00,40.3,37.1,29.90,SSE,160,0.0,1.0,88,0.00,CLR,,0.00,WeatherDisplay:10.37,2013-03-15 13:10:00,
2013-03-15 08:20:00,41.1,37.8,29.90,South,169,0.0,3.0,88,0.00,CLR,,0.00,WeatherDisplay:10.37,2013-03-15 13:20:00,
2013-03-15 08:25:00,41.7,38.4,29.90,South,181,0.0,3.0,88,0.00,CLR,,0.00,WeatherDisplay:10.37,2013-03-15 13:25:00,
2013-03-15 08:30:00,42.3,39.0,29.90,SSW,193,0.0,3.0,88,0.00,CLR,,0.00,WeatherDisplay:10.37,2013-03-15 13:30:00,
2013-03-15 08:40:00,44.1,40.5,29.90,SSW,200,1.0,6.0,87,0.00,CLR,,0.00,WeatherDisplay:10.37,2013-03-15 13:40:00,
2013-03-15 08:50:00,47.2,42.6,29.89,SSW,211,3.0,10.0,84,0.00,CLR,,0.00,WeatherDisplay:10.37,2013-03-15 13:50:00,
2013-03-15 08:55:00,49.4,43.8,29.89,SW,215,2.0,9.0,81,0.00,CLR,,0.00,WeatherDisplay:10.37,2013-03-15 13:55:00,
2013-03-15 09:00:00,51.4,44.8,29.89,SW,216,3.0,10.0,78,0.00,CLR,,0.00,WeatherDisplay:10.37,2013-03-15 14:00:00,
2013-03-15 09:10:00,54.6,45.4,29.88,SSW,213,3.0,10.0,71,0.00,CLR,,0.00,WeatherDisplay:10.37,2013-03-15 14:10:00,
2013-03-15 09:15:00,55.6,45.6,29.88,SW,217,5.0,12.0,69,0.00,CLR,,0.00,WeatherDisplay:10.37,2013-03-15 14:15:00,
2013-03-15 09:20:00,56.3,45.5,29.88,SW,222,1.0,12.0,67,0.00,CLR,,0.00,WeatherDisplay:10.37,2013-03-15 14:20:00,
2013-03-15 09:30:00,56.9,45.3,29.88,SSW,212,7.0,12.0,65,0.00,CLR,,0.00,WeatherDisplay:10.37,2013-03-15 14:30:00,
2013-03-15 09:40:00,57.1,45.4,29.88,SSW,212,2.0,13.0,65,0.00,CLR,,0.00,WeatherDisplay:10.37,2013-03-15 14:40:00,
2013-03-15 09:50:00,57.4,45.3,29.88,SSW,209,5.0,13.0,64,0.00,CLR,,0.00,WeatherDisplay:10.37,2013-03-15 14:50:00,
2013-03-15 10:00:00,57.8,45.7,29.87,SSW,211,6.0,12.0,64,0.00,CLR,,0.00,WeatherDisplay:10.37,2013-03-15 15:00:00,
2013-03-15 10:05:00,58.3,46.2,29.87,SSW,207,6.0,13.0,64,0.00,CLR,,0.00,WeatherDisplay:10.37,2013-03-15 15:05:00,
2013-03-15 10:10:00,58.9,46.3,29.87,SW,217,3.0,9.0,63,0.00,CLR,,0.00,WeatherDisplay:10.37,2013-03-15 15:10:00,
2013-03-15 10:15:00,59.2,46.2,29.87,SW,226,2.0,10.0,62,0.00,CLR,,0.00,WeatherDisplay:10.37,2013-03-15 15:15:00,
2013-03-15 10:20:00,59.5,46.5,29.87,SW,214,3.0,12.0,62,0.00,CLR,,0.00,WeatherDisplay:10.37,2013-03-15 15:20:00,
2013-03-15 10:25:00,60.0,46.9,29.87,SSW,211,5.0,12.0,62,0.00,CLR,,0.00,WeatherDisplay:10.37,2013-03-15 15:25:00,
2013-03-15 10:30:00,60.6,47.1,29.86,SSW,209,7.0,12.0,61,0.00,CLR,,0.00,WeatherDisplay:10.37,2013-03-15 15:30:00,
2013-03-15 10:40:00,61.7,47.7,29.85,SW,220,5.0,10.0,60,0.00,CLR,,0.00,WeatherDisplay:10.37,2013-03-15 15:40:00,
2013-03-15 10:50:00,62.9,48.3,29.85,SW,218,2.0,9.0,59,0.00,CLR,,0.00,WeatherDisplay:10.37,2013-03-15 15:50:00,
2013-03-15 10:55:00,63.5,48.0,29.85,SSW,207,3.0,8.0,57,0.00,CLR,,0.00,WeatherDisplay:10.37,2013-03-15 15:55:00,
2013-03-15 11:00:00,64.3,48.7,29.84,SSW,211,5.0,12.0,57,0.00,CLR,,0.00,WeatherDisplay:10.37,2013-03-15 16:00:00,
2013-03-15 11:05:00,64.8,47.8,29.84,SW,223,7.0,12.0,54,0.00,CLR,,0.00,WeatherDisplay:10.37,2013-03-15 16:05:00,
2013-03-15 11:10:00,65.2,48.6,29.84,SW,228,5.0,9.0,55,0.00,CLR,,0.00,WeatherDisplay:10.37,2013-03-15 16:10:00,
2013-03-15 11:20:00,66.2,48.5,29.84,SW,216,3.0,12.0,53,0.00,CLR,,0.00,WeatherDisplay:10.37,2013-03-15 16:20:00,
2013-03-15 11:25:00,66.8,49.1,29.84,SW,215,6.0,12.0,53,0.00,CLR,,0.00,WeatherDisplay:10.37,2013-03-15 16:25:00,
2013-03-15 11:30:00,67.5,49.2,29.83,SW,218,5.0,8.0,52,0.00,CLR,,0.00,WeatherDisplay:10.37,2013-03-15 16:30:00,
2013-03-15 11:40:00,68.5,48.6,29.83,SW,230,3.0,14.0,49,0.00,CLR,,0.00,WeatherDisplay:10.37,2013-03-15 16:40:00,
2013-03-15 11:50:00,69.4,50.0,29.82,SW,229,7.0,13.0,50,0.00,CLR,,0.00,WeatherDisplay:10.37,2013-03-15 16:50:00,
2013-03-15 11:55:00,69.7,49.1,29.82,SW,225,5.0,10.0,48,0.00,CLR,,0.00,WeatherDisplay:10.37,2013-03-15 16:55:00,
2013-03-15 12:00:00,70.0,49.4,29.82,SW,232,3.0,10.0,48,0.00,CLR,,0.00,WeatherDisplay:10.37,2013-03-15 17:00:00,
2013-03-15 12:05:00,70.5,49.8,29.81,SW,226,5.0,14.0,48,0.00,CLR,,0.00,WeatherDisplay:10.37,2013-03-15 17:05:00,
2013-03-15 12:10:00,71.0,49.2,29.81,SW,217,6.0,12.0,46,0.00,CLR,,0.00,WeatherDisplay:10.37,2013-03-15 17:10:00,
2013-03-15 12:15:00,71.5,49.0,29.80,SW,218,5.0,12.0,45,0.00,CLR,,0.00,WeatherDisplay:10.37,2013-03-15 17:15:00,
2013-03-15 12:20:00,71.8,49.9,29.81,SW,218,5.0,10.0,46,0.00,CLR,,0.00,WeatherDisplay:10.37,2013-03-15 17:20:00,
2013-03-15 12:25:00,72.3,49.7,29.80,SW,223,3.0,12.0,45,0.00,CLR,,0.00,WeatherDisplay:10.37,2013-03-15 17:25:00,
2013-03-15 12:30:00,72.5,49.3,29.80,SW,225,9.0,16.0,44,0.00,CLR,,0.00,WeatherDisplay:10.37,2013-03-15 17:30:00,
2013-03-15 12:35:00,72.6,49.5,29.80,SW,223,6.0,13.0,44,0.00,CLR,,0.00,WeatherDisplay:10.37,2013-03-15 17:35:00,
2013-03-15 12:40:00,72.8,49.6,29.80,SW,224,10.0,18.0,44,0.00,CLR,,0.00,WeatherDisplay:10.37,2013-03-15 17:40:00,
2013-03-15 12:45:00,73.0,48.5,29.80,SW,223,7.0,16.0,42,0.00,CLR,,0.00,WeatherDisplay:10.37,2013-03-15 17:45:00,
2013-03-15 12:55:00,73.2,50.0,29.79,SW,225,7.0,17.0,44,0.00,CLR,,0.00,WeatherDisplay:10.37,2013-03-15 17:55:00,
2013-03-15 13:05:00,74.2,50.3,29.78,SW,218,8.0,16.0,43,0.00,CLR,,0.00,WeatherDisplay:10.37,2013-03-15 18:05:00,
2013-03-15 13:10:00,74.3,50.4,29.78,SW,217,8.0,15.0,43,0.00,CLR,,0.00,WeatherDisplay:10.37,2013-03-15 18:10:00,
2013-03-15 13:15:00,74.7,51.9,29.78,SSW,211,6.0,12.0,45,0.00,CLR,,0.00,WeatherDisplay:10.37,2013-03-15 18:15:00,
2013-03-15 13:20:00,75.1,51.1,29.78,SW,222,7.0,12.0,43,0.00,CLR,,0.00,WeatherDisplay:10.37,2013-03-15 18:20:00,
2013-03-15 13:25:00,75.6,50.2,29.78,SW,235,7.0,12.0,41,0.00,CLR,,0.00,WeatherDisplay:10.37,2013-03-15 18:25:00,
2013-03-15 13:30:00,75.4,50.1,29.78,SW,228,7.0,15.0,41,0.00,CLR,,0.00,WeatherDisplay:10.37,2013-03-15 18:30:00,
2013-03-15 13:40:00,75.1,51.0,29.77,SW,228,2.0,12.0,43,0.00,CLR,,0.00,WeatherDisplay:10.37,2013-03-15 18:40:00,
2013-03-15 13:45:00,74.9,50.9,29.77,WSW,240,5.0,10.0,43,0.00,CLR,,0.00,WeatherDisplay:10.37,2013-03-15 18:45:00,
2013-03-15 13:50:00,74.9,50.9,29.77,SW,233,3.0,13.0,43,0.00,CLR,,0.00,WeatherDisplay:10.37,2013-03-15 18:50:00,
2013-03-15 13:55:00,75.1,51.1,29.77,SW,227,5.0,13.0,43,0.00,CLR,,0.00,WeatherDisplay:10.37,2013-03-15 18:55:00,
2013-03-15 14:00:00,75.0,50.4,29.77,SW,222,6.0,15.0,42,0.00,CLR,,0.00,WeatherDisplay:10.37,2013-03-15 19:00:00,
2013-03-15 14:05:00,75.1,50.4,29.76,SW,230,3.0,8.0,42,0.00,CLR,,0.00,WeatherDisplay:10.37,2013-03-15 19:05:00,
2013-03-15 14:10:00,75.2,51.2,29.76,SW,230,3.0,12.0,43,0.00,CLR,,0.00,WeatherDisplay:10.37,2013-03-15 19:10:00,
2013-03-15 14:15:00,75.6,50.9,29.75,SW,226,5.0,12.0,42,0.00,CLR,,0.00,WeatherDisplay:10.37,2013-03-15 19:15:00,
2013-03-15 14:20:00,76.2,50.1,29.75,SW,218,5.0,10.0,40,0.00,CLR,,0.00,WeatherDisplay:10.37,2013-03-15 19:20:00,
2013-03-15 14:30:00,77.5,49.2,29.75,WSW,242,7.0,15.0,37,0.00,CLR,,0.00,WeatherDisplay:10.37,2013-03-15 19:30:00,
2013-03-15 14:40:00,78.0,50.3,29.73,SW,228,7.0,15.0,38,0.00,CLR,,0.00,WeatherDisplay:10.37,2013-03-15 19:40:00,
2013-03-15 14:45:00,78.8,50.3,29.73,SW,223,2.0,16.0,37,0.00,CLR,,0.00,WeatherDisplay:10.37,2013-03-15 19:45:00,
2013-03-15 14:50:00,79.6,48.7,29.73,SW,220,7.0,16.0,34,0.00,CLR,,0.00,WeatherDisplay:10.37,2013-03-15 19:50:00,
2013-03-15 15:00:00,80.5,50.3,29.72,SW,228,5.0,13.0,35,0.00,CLR,,0.00,WeatherDisplay:10.37,2013-03-15 20:00:00,
2013-03-15 15:05:00,81.0,49.2,29.72,WSW,242,8.0,15.0,33,0.00,CLR,,0.00,WeatherDisplay:10.37,2013-03-15 20:05:00,
2013-03-15 15:10:00,80.8,49.0,29.72,WSW,246,6.0,15.0,33,0.00,CLR,,0.00,WeatherDisplay:10.37,2013-03-15 20:10:00,
2013-03-15 15:20:00,80.5,49.5,29.72,SW,234,7.0,13.0,34,0.00,CLR,,0.00,WeatherDisplay:10.37,2013-03-15 20:20:00,
2013-03-15 15:25:00,80.1,50.7,29.72,SW,222,2.0,12.0,36,0.00,CLR,,0.00,WeatherDisplay:10.37,2013-03-15 20:25:00,
2013-03-15 15:30:00,80.3,48.6,29.71,SW,217,8.0,17.0,33,0.00,CLR,,0.00,WeatherDisplay:10.37,2013-03-15 20:30:00,
2013-03-15 15:40:00,80.8,49.0,29.70,SW,227,2.0,12.0,33,0.00,CLR,,0.00,WeatherDisplay:10.37,2013-03-15 20:40:00,
2013-03-15 15:50:00,81.0,49.2,29.70,SW,224,3.0,16.0,33,0.00,CLR,,0.00,WeatherDisplay:10.37,2013-03-15 20:50:00,
2013-03-15 16:00:00,80.3,49.4,29.70,SSW,210,2.0,13.0,34,0.00,CLR,,0.00,WeatherDisplay:10.37,2013-03-15 21:00:00,
2013-03-15 16:05:00,80.1,49.2,29.70,SSW,213,3.0,14.0,34,0.00,CLR,,0.00,WeatherDisplay:10.37,2013-03-15 21:05:00,
2013-03-15 16:10:00,79.9,48.2,29.70,SW,219,9.0,15.0,33,0.00,CLR,,0.00,WeatherDisplay:10.37,2013-03-15 21:10:00,
2013-03-15 16:20:00,79.8,48.9,29.69,SW,236,2.0,12.0,34,0.00,CLR,,0.00,WeatherDisplay:10.37,2013-03-15 21:20:00,
2013-03-15 16:30:00,79.7,48.1,29.69,SW,220,3.0,9.0,33,0.00,CLR,,0.00,WeatherDisplay:10.37,2013-03-15 21:30:00,
2013-03-15 16:40:00,80.5,48.7,29.69,SW,225,3.0,10.0,33,0.00,CLR,,0.00,WeatherDisplay:10.37,2013-03-15 21:40:00,
2013-03-15 16:50:00,81.3,49.4,29.68,SSW,200,3.0,12.0,33,0.00,CLR,,0.00,WeatherDisplay:10.37,2013-03-15 21:50:00,
2013-03-15 17:00:00,81.6,49.7,29.68,SSW,204,3.0,9.0,33,0.00,CLR,,0.00,WeatherDisplay:10.37,2013-03-15 22:00:00,
2013-03-15 17:05:00,81.6,49.7,29.68,SW,219,1.0,13.0,33,0.00,CLR,,0.00,WeatherDisplay:10.37,2013-03-15 22:05:00,
2013-03-15 17:10:00,81.4,49.5,29.68,SW,219,6.0,12.0,33,0.00,CLR,,0.00,WeatherDisplay:10.37,2013-03-15 22:10:00,
2013-03-15 17:20:00,80.7,48.9,29.67,SW,218,9.0,18.0,33,0.00,CLR,,0.00,WeatherDisplay:10.37,2013-03-15 22:20:00,
2013-03-15 17:30:00,79.8,48.2,29.67,SW,223,6.0,14.0,33,0.00,CLR,,0.00,WeatherDisplay:10.37,2013-03-15 22:30:00,
2013-03-15 17:40:00,79.0,48.3,29.67,SW,215,7.0,20.0,34,0.00,CLR,,0.00,WeatherDisplay:10.37,2013-03-15 22:40:00,
2013-03-15 17:45:00,78.6,48.7,29.67,SSW,208,8.0,16.0,35,0.00,CLR,,0.00,WeatherDisplay:10.37,2013-03-15 22:45:00,
2013-03-15 17:50:00,78.4,50.0,29.67,SSW,201,5.0,12.0,37,0.00,CLR,,0.00,WeatherDisplay:10.37,2013-03-15 22:50:00,
2013-03-15 17:55:00,78.2,51.2,29.66,SSW,202,8.0,18.0,39,0.00,CLR,,0.00,WeatherDisplay:10.37,2013-03-15 22:55:00,
2013-03-15 18:00:00,77.6,50.7,29.66,SSW,204,8.0,16.0,39,0.00,CLR,,0.00,WeatherDisplay:10.37,2013-03-15 23:00:00,
2013-03-15 18:05:00,76.9,51.4,29.67,SSW,209,7.0,17.0,41,0.00,CLR,,0.00,WeatherDisplay:10.37,2013-03-15 23:05:00,
2013-03-15 18:10:00,75.9,51.2,29.67,SSW,209,8.0,16.0,42,0.00,CLR,,0.00,WeatherDisplay:10.37,2013-03-15 23:10:00,
2013-03-15 18:15:00,75.2,51.2,29.67,SSW,208,8.0,12.0,43,0.00,CLR,,0.00,WeatherDisplay:10.37,2013-03-15 23:15:00,
2013-03-15 18:25:00,74.2,50.9,29.67,SSW,208,6.0,12.0,44,0.00,CLR,,0.00,WeatherDisplay:10.37,2013-03-15 23:25:00,
2013-03-15 18:35:00,73.5,50.9,29.66,SSW,205,2.0,12.0,45,0.00,CLR,,0.00,WeatherDisplay:10.37,2013-03-15 23:35:00,
2013-03-15 18:40:00,73.2,50.6,29.66,SSW,206,5.0,12.0,45,0.00,CLR,,0.00,WeatherDisplay:10.37,2013-03-15 23:40:00,
2013-03-15 18:45:00,73.0,51.0,29.66,SSW,205,7.0,15.0,46,0.00,CLR,,0.00,WeatherDisplay:10.37,2013-03-15 23:45:00,
2013-03-15 18:50:00,72.7,50.7,29.66,SSW,207,6.0,10.0,46,0.00,CLR,,0.00,WeatherDisplay:10.37,2013-03-15 23:50:00,
2013-03-15 18:55:00,72.3,50.4,29.66,SSW,208,2.0,12.0,46,0.00,CLR,,0.00,WeatherDisplay:10.37,2013-03-15 23:55:00,
2013-03-15 19:05:00,71.8,51.0,29.66,SW,215,2.0,9.0,48,0.00,CLR,,0.00,WeatherDisplay:10.37,2013-03-16 00:05:00,
2013-03-15 19:10:00,71.5,50.8,29.66,SSW,213,3.0,10.0,48,0.00,CLR,,0.00,WeatherDisplay:10.37,2013-03-16 00:10:00,
2013-03-15 19:15:00,71.4,50.7,29.65,SSW,201,6.0,10.0,48,0.00,CLR,,0.00,WeatherDisplay:10.37,2013-03-16 00:15:00,
2013-03-15 19:20:00,71.1,50.4,29.66,SSW,206,5.0,12.0,48,0.00,CLR,,0.00,WeatherDisplay:10.37,2013-03-16 00:20:00,
2013-03-15 19:30:00,71.0,50.3,29.66,SW,214,6.0,12.0,48,0.00,CLR,,0.00,WeatherDisplay:10.37,2013-03-16 00:30:00,
2013-03-15 19:35:00,70.7,50.0,29.66,SSW,208,2.0,10.0,48,0.00,CLR,,0.00,WeatherDisplay:10.37,2013-03-16 00:35:00,
2013-03-15 19:40:00,70.3,50.2,29.66,SSW,206,3.0,12.0,49,0.00,CLR,,0.00,WeatherDisplay:10.37,2013-03-16 00:40:00,
2013-03-15 19:50:00,70.0,49.4,29.65,SSW,210,5.0,9.0,48,0.00,CLR,,0.00,WeatherDisplay:10.37,2013-03-16 00:50:00,
2013-03-15 19:55:00,69.8,49.2,29.65,SSW,204,3.0,10.0,48,0.00,CLR,,0.00,WeatherDisplay:10.37,2013-03-16 00:55:00,
2013-03-15 20:00:00,69.8,49.2,29.66,SSW,204,5.0,12.0,48,0.00,CLR,,0.00,WeatherDisplay:10.37,2013-03-16 01:00:00,
2013-03-15 20:05:00,69.5,48.9,29.66,SSW,202,3.0,10.0,48,0.00,CLR,,0.00,WeatherDisplay:10.37,2013-03-16 01:05:00,
2013-03-15 20:15:00,69.2,48.7,29.66,SSW,207,5.0,12.0,48,0.00,CLR,,0.00,WeatherDisplay:10.37,2013-03-16 01:15:00,
2013-03-15 20:20:00,69.1,48.6,29.66,SSW,209,3.0,10.0,48,0.00,CLR,,0.00,WeatherDisplay:10.37,2013-03-16 01:20:00,
2013-03-15 20:25:00,68.8,48.9,29.65,SSW,206,3.0,10.0,49,0.00,CLR,,0.00,WeatherDisplay:10.37,2013-03-16 01:25:00,
2013-03-15 20:35:00,68.3,48.4,29.65,SSW,200,5.0,9.0,49,0.00,CLR,,0.00,WeatherDisplay:10.37,2013-03-16 01:35:00,
2013-03-15 20:45:00,68.0,48.1,29.65,SSW,209,6.0,12.0,49,0.00,CLR,,0.00,WeatherDisplay:10.37,2013-03-16 01:45:00,
2013-03-15 20:50:00,67.8,48.5,29.65,SW,217,3.0,9.0,50,0.00,CLR,,0.00,WeatherDisplay:10.37,2013-03-16 01:50:00,
2013-03-15 21:00:00,67.5,48.2,29.66,SSW,203,6.0,12.0,50,0.00,CLR,,0.00,WeatherDisplay:10.37,2013-03-16 02:00:00,
2013-03-15 21:05:00,67.3,48.0,29.66,SSW,209,8.0,15.0,50,0.00,CLR,,0.00,WeatherDisplay:10.37,2013-03-16 02:05:00,
2013-03-15 21:10:00,67.1,47.8,29.66,SSW,207,3.0,9.0,50,0.00,CLR,,0.00,WeatherDisplay:10.37,2013-03-16 02:10:00,
2013-03-15 21:15:00,66.9,48.2,29.65,SSW,199,5.0,12.0,51,0.00,CLR,,0.00,WeatherDisplay:10.37,2013-03-16 02:15:00,
2013-03-15 21:20:00,66.8,48.1,29.66,SSW,201,1.0,9.0,51,0.00,CLR,,0.00,WeatherDisplay:10.37,2013-03-16 02:20:00,
2013-03-15 21:30:00,66.3,47.6,29.65,SSW,203,3.0,8.0,51,0.00,CLR,,0.00,WeatherDisplay:10.37,2013-03-16 02:30:00,
2013-03-15 21:35:00,66.1,48.0,29.65,SSW,210,6.0,10.0,52,0.00,CLR,,0.00,WeatherDisplay:10.37,2013-03-16 02:35:00,
2013-03-15 21:40:00,65.7,47.6,29.66,SW,215,3.0,9.0,52,0.00,CLR,,0.00,WeatherDisplay:10.37,2013-03-16 02:40:00,
2013-03-15 21:50:00,65.4,47.8,29.66,SSW,204,3.0,8.0,53,0.00,CLR,,0.00,WeatherDisplay:10.37,2013-03-16 02:50:00,
2013-03-15 21:55:00,65.2,47.6,29.66,SW,217,3.0,7.0,53,0.00,CLR,,0.00,WeatherDisplay:10.37,2013-03-16 02:55:00,
2013-03-15 22:00:00,64.9,47.9,29.66,SW,220,2.0,8.0,54,0.00,CLR,,0.00,WeatherDisplay:10.37,2013-03-16 03:00:00,
2013-03-15 22:05:00,64.6,47.1,29.66,SW,220,1.0,7.0,53,0.00,CLR,,0.00,WeatherDisplay:10.37,2013-03-16 03:05:00,
2013-03-15 22:10:00,64.3,47.8,29.66,SW,224,2.0,7.0,55,0.00,CLR,,0.00,WeatherDisplay:10.37,2013-03-16 03:10:00,
2013-03-15 22:20:00,63.9,47.4,29.66,SW,220,2.0,9.0,55,0.00,CLR,,0.00,WeatherDisplay:10.37,2013-03-16 03:20:00,
2013-03-15 22:25:00,63.7,47.2,29.66,WSW,237,2.0,8.0,55,0.00,CLR,,0.00,WeatherDisplay:10.37,2013-03-16 03:25:00,
2013-03-15 22:30:00,63.4,46.9,29.67,WSW,237,2.0,8.0,55,0.00,CLR,,0.00,WeatherDisplay:10.37,2013-03-16 03:30:00,
2013-03-15 22:35:00,63.1,47.2,29.68,WSW,245,1.0,5.0,56,0.00,CLR,,0.00,WeatherDisplay:10.37,2013-03-16 03:35:00,
2013-03-15 22:40:00,62.8,46.9,29.69,WNW,296,1.0,5.0,56,0.00,CLR,,0.00,WeatherDisplay:10.37,2013-03-16 03:40:00,
2013-03-15 22:50:00,62.3,46.9,29.69,WSW,254,1.0,3.0,57,0.00,CLR,,0.00,WeatherDisplay:10.37,2013-03-16 03:50:00,
2013-03-15 22:55:00,62.0,47.0,29.70,West,270,1.0,5.0,58,0.00,CLR,,0.00,WeatherDisplay:10.37,2013-03-16 03:55:00,
2013-03-15 23:00:00,61.7,47.2,29.70,WNW,282,1.0,3.0,59,0.00,CLR,,0.00,WeatherDisplay:10.37,2013-03-16 04:00:00,
2013-03-15 23:05:00,61.2,46.7,29.69,WNW,282,0.0,3.0,59,0.00,CLR,,0.00,WeatherDisplay:10.37,2013-03-16 04:05:00,
2013-03-15 23:10:00,60.7,46.7,29.69,West,276,0.0,3.0,60,0.00,CLR,,0.00,WeatherDisplay:10.37,2013-03-16 04:10:00,
2013-03-15 23:15:00,60.1,46.6,29.69,West,274,0.0,2.0,61,0.00,CLR,,0.00,WeatherDisplay:10.37,2013-03-16 04:15:00,
2013-03-15 23:20:00,59.5,46.1,29.69,West,274,0.0,1.0,61,0.00,CLR,,0.00,WeatherDisplay:10.37,2013-03-16 04:20:00,
2013-03-15 23:25:00,58.9,46.3,29.69,West,274,0.0,1.0,63,0.00,CLR,,0.00,WeatherDisplay:10.37,2013-03-16 04:25:00,
2013-03-15 23:30:00,58.3,45.8,29.69,West,274,0.0,0.0,63,0.00,CLR,,0.00,WeatherDisplay:10.37,2013-03-16 04:30:00,
2013-03-15 23:35:00,57.8,46.1,29.68,West,274,0.0,0.0,65,0.00,CLR,,0.00,WeatherDisplay:10.37,2013-03-16 04:35:00,
2013-03-15 23:40:00,57.2,45.5,29.69,West,274,0.0,0.0,65,0.00,CLR,,0.00,WeatherDisplay:10.37,2013-03-16 04:40:00,
2013-03-15 23:50:00,56.0,45.6,29.69,West,274,0.0,1.0,68,0.00,CLR,,0.00,WeatherDisplay:10.37,2013-03-16 04:50:00,
2013-03-15 23:55:00,55.5,45.5,29.68,West,274,0.0,1.0,69,0.00,CLR,,0.00,WeatherDisplay:10.37,2013-03-16 04:55:00,